843  
ASUS44 KLIX 232013  
RWRLIX  
NEW ORLEANS REGIONAL WEATHER ROUNDUP  
NATIONAL WEATHER SERVICE NEW ORLEANS LA  
300 PM CDT SUN JUL 23 2017  
 
NOTE: "FAIR" INDICATES FEW OR NO CLOUDS BELOW 12,000 FEET WITH NO  
SIGNIFICANT WEATHER AND/OR S TO VISIBILITY
.  
SKY/WX - SKY CONDITION AND SIGNIFICANT WEATHER.  
TMP - AIR TEMPERATURE. DP - DEWPOINT TEMPERATURE.  
RH - RELATIVE HUMIDITY. PRES - PRESSURE.  
HI - HEAT INDEX. WCI - WIND CHILL INDEX.  
 
* THESE STATIONS ARE NOT NWS OR FAA STATIONS AND ARE NOT UNDER  
NWS QUALITY CONTROL.  
 
LAZ038-040-048-061>063-065>067-069-232100-  
SOUTHEAST LOUISIANA  
 
CITY SKY/WX TMP DP RH WIND PRES REMARKS
 
N.O. INTL ARPT PTSUNNY 83 73 72 W14 29.99S  
N.O. LAKEFRONT CLOUDY 85 75 72 W18 29.98F  
N.O. DOWNTOWN* N/A 83 73 72 VRB7 N/A  
RESERVE* CLOUDY 83 72 69 W13 30.00S  
SLIDELL CLOUDY 84 74 71 SW8 29.97S  
BATON ROUGE RAIN 75 73 93 N3 30.00S FOG  
BOOTHVILLE NOT AVBL  
BELLE CHASSE NOT AVBL  
BOGALUSA* MOCLDY 83 76 78 S3 29.98F  
GALLIANO* LGT RAIN 78 72 82 W8 30.00F  
NEW ROADS* LGT RAIN 74 74 99 SE3 30.00S  
GONZALES* CLOUDY 77 74 90 W3 30.01R  
HAMMOND* CLOUDY 81 68 65 NW18G32 29.98R  
HOUMA* MOSUNNY 81 73 78 W5 30.00F  
PORT FOURCHON* PTCLDY 77 73 88 W10 30.00F  
 

 
 
MSZ070-080>082-232100-  
SOUTHERN MISSISSIPPI  
 
CITY SKY/WX TMP DP RH WIND PRES REMARKS
 
MCCOMB LGT RAIN 75 72 90 W5 29.99S  
GULFPORT LGT RAIN 80 77 90 W6 29.96S FOG  
BILOXI CLOUDY 83 75 76 CALM 29.95F  
PASCAGOULA MOSUNNY 87 72 60 CALM 29.96F  
STENNIS ARPT* PTSUNNY 84 75 74 W5 29.97S  
 

 
 
COASTAL OBSERVATIONS  
LAKE AND NEARSHORE STATIONS  
 
STATION/POSITION TIME TEMP WIND PRES WAVE
 
AIR SEA DIR/SP/G HT/PER  
(UTC) (F) (DEG/KT/KT) (MB) (FT/S)  
PASCAGOULA 1948 86 260/ 9/ 14 1014.3  
WAVELAND YACHT 1948 82 89 280/ 8/ 10 1014.9  
GRAND ISLE 1948 78 85 290/ 12/ 15 1016.1  
SOUTHWEST PASS 1948 79 270/ 12/ 14 N/A  
NEW CANAL 1948 83 85 230/ 8/ 12 1015.4  
SHELL BEACH 1948 80 89 240/ 12/ 16 1015.5  
 
OFFSHORE STATIONS  
 
STATION/POSITION TIME TEMP WIND PRES WAVE
 
AIR SEA DIR/SP/G HT/PER  
(UTC) (F) (DEG/KT/KT) (MB) (FT/S)  
64 S DAUPHIN ISL 1950 78 310/ 8/ 10 1016.1 2/ 4  
 

 
 
 
 
CLICK HERE TO GO TO PREVIOUS BULLETINS.

The Nexlab LA Page
The Nexlab MS Page Main Text Page